[[{"header":{"parameterUnit":"m.s-1","parameterCategory":1,"la1":30.2991,"la2":30.254,"lo1":-89.0895,"lo2":-89.0444,"dy":0.0017,"dx":0.0017,"nx":28,"ny":28,"refTime":"2025-12-20T09:00:00:Z","depth":0,"parameterNumber":2,"parameterNumberName":"U-component_of_WINDS"},"data":[0,0,0,0,0,0,0,0,0,0,0,0,0,0,0,0,0,0,0,0,0,0,0,0,0,0,0,0,0,0,0,0,0,0,0,0,0,0,0,0,0,0,0,0,0,0,0,0,0,0,0,0,0,0,0,0,0,0,0.6299,0.6299,0,0.636,0.6361,0.6362,0.6351,0.635,0.6349,0.6348,0.6407,0.641,0.6412,0,0,0,0,0,0,0,0,0,0,0,0,0,0.6169,0.6172,0.6299,0.6299,0.63,0.636,0.6361,0.6362,0.6351,0.635,0.6348,0.6347,0.6406,0.6409,0.6413,0,0,0,0,0,0,0,0,0,0,0,0,0,0.6228,0.6173,0.6299,0.6302,0.6303,0.636,0.6361,0.6362,0.6351,0.635,0.6348,0.6346,0.6405,0.6409,0.6413,0.6469,0,0,0.6425,0.6427,0,0,0,0,0,0,0,0,0.6224,0.6232,0.6301,0.6302,0.6303,0.6346,0.6337,0.6398,0.6352,0.6333,0.6348,0.6346,0.6388,0.6393,0.6408,0.6472,0.6475,0.6425,0.6428,0.6429,0.643,0,0,0,0,0,0,0,0.622,0.623,0.6323,0.6302,0.6303,0.63,0.6306,0.6349,0.6369,0.6334,0.6334,0.6341,0.6388,0.6405,0.641,0.6476,0.6425,0.6429,0.6431,0.6432,0.6591,0.6592,0,0,0,0,0,0,0.6216,0.6226,0.6321,0.6325,0.6259,0.6304,0.6311,0.6334,0.6368,0.6372,0.6343,0.6341,0.6399,0.6405,0.6412,0.6481,0.6429,0.6433,0.6435,0.6589,0.6591,0.6593,0,0,0,0,0,0,0.6213,0.6224,0.6319,0.6276,0.6287,0.6308,0.6334,0.6336,0.6352,0.6375,0.6378,0.6356,0.6398,0.6406,0.6456,0.6483,0.6435,0.6438,0.6586,0.6589,0.6592,0.662,0,0,0,0,0,0,0.6209,0.6223,0.6245,0.6276,0.629,0.6362,0.6335,0.6338,0.6359,0.6357,0.6388,0.6391,0.6397,0.645,0.646,0.6488,0.6441,0.6584,0.6588,0.6591,0.6617,0.6623,0.6629,0,0,0,0,0,0.6205,0.6249,0.6246,0.6258,0.6318,0.6364,0.6372,0.6379,0.6362,0.6384,0.6398,0.639,0.6479,0.6455,0.6466,0.6495,0.6582,0.6587,0.6591,0.6614,0.6622,0.6629,0,0,0,0,0,0,0.6219,0.6254,0.625,0.6307,0.6333,0.6362,0.639,0.6387,0.6417,0.6414,0.642,0.6427,0.6478,0.6491,0.6465,0.6553,0.6528,0.6535,0.6542,0.655,0.6556,0.6552,0.6444,0,0,0,0,0,0.623,0.6265,0.6293,0.6339,0.6353,0.6369,0.639,0.6393,0.642,0.643,0.6448,0.6474,0.6507,0.6529,0.6561,0.6619,0.6625,0.6644,0.665,0.6655,0.6661,0.6694,0.6703,0.6607,0.6607,0.6607,0,0,0.625,0.6273,0.6295,0.6343,0.6364,0.64,0.6379,0.6417,0.6444,0.6436,0.6485,0.6499,0.6527,0.6582,0.6606,0.6595,0.6689,0.6661,0.6665,0.6668,0.6699,0.6708,0.6716,0.661,0.6609,0.6609,0,0,0.6306,0.6327,0.637,0.6391,0.6424,0.6435,0.6445,0.6475,0.6485,0.6534,0.6529,0.6561,0.6618,0.664,0.6658,0.6725,0.6718,0.6735,0.6767,0.6799,0.6807,0.6814,0.6838,0.6847,0.674,0.674,0.674,0,0.6328,0.6383,0.6391,0.6432,0.6454,0.6449,0.6493,0.6513,0.6553,0.6568,0.6554,0.6628,0.6647,0.6707,0.6723,0.6738,0.675,0.6731,0.6805,0.6812,0.6818,0.6842,0.6852,0.6742,0.6742,0.6742,0.6742,0,0.6408,0.6447,0.6477,0.6519,0.6544,0.6585,0.6599,0.6624,0.6625,0.6638,0.6689,0.6711,0.6749,0.6763,0.6764,0.6824,0.6816,0.6804,0.6779,0.6829,0.6852,0.6861,0.6745,0.6744,0.6744,0.6743,0,0,0.6474,0.6522,0.6533,0.6553,0.6589,0.6618,0.666,0.6698,0.6719,0.6748,0.6783,0.6833,0.6823,0.6843,0.6847,0.6875,0.6928,0.6859,0.686,0.6872,0.6996,0.7006,0.7016,0.6924,0.6926,0.6927,0.6994,0,0.6535,0.661,0.662,0.6686,0.6722,0.672,0.6756,0.6782,0.6795,0.6827,0.6841,0.6877,0.686,0.6873,0.69,0.6916,0.6953,0.6911,0.6957,0.6958,0.695,0.7028,0.7037,0.7099,0.7003,0.7004,0.7006,0,0.6615,0.6648,0.6719,0.6752,0.6768,0.68,0.6837,0.6868,0.6898,0.6905,0.693,0.6931,0.6973,0.6947,0.7006,0.6978,0.6997,0.7007,0.701,0.7015,0.6985,0.7035,0.7119,0.7129,0.7019,0.7018,0.7017,0,0.6658,0.672,0.677,0.6787,0.6827,0.685,0.6868,0.6896,0.6919,0.6951,0.6966,0.7001,0.7021,0.7049,0.7059,0.7039,0.7118,0.7092,0.7125,0.7125,0.7142,0.7141,0.7231,0.7154,0.7154,0.7153,0.7153,0,0.6724,0.6768,0.6791,0.6822,0.6871,0.6881,0.6929,0.6945,0.6971,0.7005,0.7004,0.7036,0.7047,0.7081,0.7089,0.7137,0.7146,0.7153,0.7155,0.7154,0.7153,0.7166,0.7162,0.7156,0.7155,0.7155,0.7154,0,0.678,0.6797,0.6852,0.6886,0.6896,0.6931,0.6959,0.699,0.7003,0.7046,0.7057,0.7078,0.7117,0.7131,0.7178,0.7183,0.724,0.7238,0.7231,0.7231,0.7264,0.7261,0.7366,0.7381,0.7293,0.7294,0.7295,0,0.6821,0.6855,0.6894,0.6918,0.6937,0.6975,0.6999,0.7011,0.7036,0.7074,0.71,0.714,0.7172,0.7236,0.7255,0.7291,0.729,0.7324,0.7295,0.7294,0.7291,0.729,0.7293,0.733,0.7331,0.7331,0.7332,0,0.6893,0.6901,0.6937,0.6977,0.7007,0.7038,0.7068,0.7087,0.7104,0.7132,0.7174,0.72,0.725,0.7289,0.7327,0.7344,0.7341,0.7341,0.7351,0.735,0.7345,0.7349,0.7246,0.7339,0.7338,0.7337,0.7337,0.7337,0.6944,0.6974,0.7008,0.7048,0.7073,0.7102,0.7133,0.7151,0.7187,0.723,0.7234,0.728,0.731,0.7361,0.738,0.7415,0.7405,0.7419,0.7422,0.7426,0.7429,0.734,0.7421,0.7421,0.7421,0.7421,0.7421,0,0.7017,0.7039,0.7076,0.712,0.7152,0.7149,0.7182,0.7209,0.725,0.7279,0.7312,0.7361,0.74,0.7423,0.7462,0.7486,0.7485,0.7496,0.7494,0.7498,0.7435,0.7423,0.7495,0.7495,0.7495,0.7495,0.7495,0.7495,0.7058,0.7111,0.7123,0.7188,0.7209,0.7255,0.7275,0.7302,0.7325,0.7381,0.7414,0.7429,0.7456,0.7498,0.7533,0.7539,0.7553,0.7565,0.757,0.751,0.7502,0.7495,0.7484,0.7568,0.7568,0.763,0.7631,0.7631]},{"header":{"parameterUnit":"m.s-1","parameterCategory":1,"la1":30.2991,"la2":30.254,"lo1":-89.0895,"lo2":-89.0444,"dy":0.0017,"dx":0.0017,"nx":28,"ny":28,"refTime":"2025-12-20T09:00:00:Z","depth":0,"parameterNumber":3,"parameterNumberName":"V-component_of_WINDS"},"data":[0,0,0,0,0,0,0,0,0,0,0,0,0,0,0,0,0,0,0,0,0,0,0,0,0,0,0,0,0,0,0,0,0,0,0,0,0,0,0,0,0,0,0,0,0,0,0,0,0,0,0,0,0,0,0,0,0,0,2.0831,2.0833,0,2.1009,2.1011,2.1013,2.1074,2.1073,2.1073,2.1072,2.1253,2.1259,2.1264,0,0,0,0,0,0,0,0,0,0,0,0,0,2.0541,2.0546,2.0831,2.0833,2.0835,2.1009,2.1011,2.1013,2.1074,2.1073,2.1073,2.1072,2.1252,2.1258,2.1265,0,0,0,0,0,0,0,0,0,0,0,0,0,2.0688,2.0548,2.083,2.0886,2.0893,2.1008,2.1011,2.1014,2.1074,2.1073,2.1072,2.1071,2.125,2.1258,2.1266,2.1337,0,0,2.1291,2.1294,0,0,0,0,0,0,0,0,2.0679,2.0698,2.0876,2.0883,2.089,2.1018,2.0976,2.1122,2.1075,2.1006,2.1072,2.1071,2.1176,2.119,2.1226,2.1346,2.1354,2.1291,2.1296,2.13,2.1302,0,0,0,0,0,0,0,2.0669,2.0691,2.0901,2.0878,2.0887,2.0902,2.0922,2.1004,2.1094,2.1012,2.1016,2.1037,2.118,2.1218,2.1231,2.1356,2.1291,2.1299,2.1304,2.1307,2.1543,2.1545,0,0,0,0,0,0,2.065,2.0682,2.0895,2.0906,2.078,2.0908,2.093,2.0978,2.1094,2.111,2.1037,2.1039,2.1204,2.1221,2.1237,2.1329,2.13,2.1308,2.1312,2.1542,2.1544,2.1545,0,0,0,0,0,0,2.0643,2.0668,2.0888,2.0796,2.0825,2.0914,2.0968,2.0982,2.1021,2.1113,2.113,2.106,2.1204,2.1226,2.1312,2.1336,2.1311,2.1319,2.154,2.1542,2.1544,2.1513,0,0,0,0,0,0,2.0635,2.0666,2.0694,2.0796,2.083,2.0961,2.0969,2.0987,2.1035,2.1038,2.1139,2.1154,2.1205,2.1299,2.132,2.1347,2.1325,2.1539,2.1541,2.1544,2.1512,2.1513,2.1514,0,0,0,0,0,2.0624,2.0678,2.0696,2.0721,2.0868,2.0962,2.0981,2.1039,2.1036,2.1066,2.1125,2.1151,2.1329,2.1308,2.1332,2.1361,2.1537,2.154,2.1543,2.1511,2.1513,2.1514,0,0,0,0,0,0,2.0577,2.0693,2.0713,2.0802,2.0871,2.0972,2.1011,2.1039,2.1111,2.1111,2.1179,2.1201,2.1282,2.133,2.1304,2.1436,2.1435,2.1443,2.1402,2.1405,2.1406,2.1393,2.1332,0,0,0,0,0,2.0577,2.0645,2.0742,2.081,2.0844,2.0921,2.0965,2.1003,2.1078,2.1108,2.1173,2.1245,2.1317,2.1363,2.1435,2.1518,2.1541,2.155,2.1552,2.1552,2.1559,2.1606,2.1611,2.1555,2.1555,2.1555,0,0,2.0578,2.0649,2.0688,2.0803,2.0862,2.0929,2.0946,2.1017,2.1068,2.1118,2.1204,2.1254,2.1338,2.1424,2.1464,2.1466,2.1579,2.1556,2.1556,2.1562,2.161,2.1615,2.162,2.1557,2.1557,2.1556,0,0,2.0615,2.0675,2.0739,2.0797,2.0886,2.0936,2.0951,2.1047,2.1083,2.117,2.1209,2.1269,2.1393,2.1451,2.1496,2.1552,2.1579,2.1573,2.1581,2.1626,2.163,2.1635,2.1655,2.1661,2.1579,2.1579,2.1579,0,2.0605,2.0709,2.0768,2.0838,2.0887,2.0935,2.1,2.1053,2.116,2.1192,2.1193,2.1347,2.1407,2.1507,2.152,2.1555,2.1574,2.1563,2.1625,2.163,2.1635,2.1655,2.1662,2.1578,2.1578,2.1578,2.1578,0,2.0693,2.0764,2.0805,2.0907,2.0961,2.1027,2.1096,2.1143,2.1175,2.1225,2.1313,2.1386,2.1473,2.1499,2.1531,2.1602,2.1601,2.1612,2.1612,2.1638,2.1658,2.1666,2.1576,2.1577,2.1577,2.1577,0,0,2.0707,2.084,2.0854,2.0901,2.1,2.1057,2.1124,2.121,2.1249,2.132,2.1378,2.148,2.1491,2.1543,2.1582,2.1621,2.1661,2.1628,2.1631,2.1632,2.1743,2.1735,2.1743,2.1678,2.168,2.1681,2.1737,0,2.0757,2.0882,2.0937,2.1036,2.1103,2.1148,2.1207,2.1274,2.1322,2.1385,2.1437,2.1509,2.1517,2.1549,2.159,2.1647,2.1684,2.1644,2.1733,2.1736,2.1712,2.1754,2.1746,2.1794,2.1745,2.1746,2.1747,0,2.0834,2.0905,2.1011,2.1102,2.1132,2.1185,2.1267,2.1326,2.1402,2.1434,2.1491,2.1528,2.16,2.1593,2.1693,2.1665,2.1704,2.1737,2.174,2.1752,2.1744,2.1767,2.1811,2.1819,2.176,2.1759,2.1758,0,2.0835,2.0957,2.1037,2.1075,2.1183,2.1218,2.1265,2.134,2.1387,2.1458,2.1489,2.1567,2.161,2.1669,2.1725,2.1716,2.182,2.1818,2.1848,2.1847,2.187,2.1868,2.1922,2.1893,2.1893,2.1893,2.1892,0,2.0886,2.095,2.1038,2.1087,2.1159,2.122,2.1289,2.1339,2.1405,2.1464,2.1506,2.156,2.1631,2.1694,2.1738,2.1814,2.1833,2.186,2.1872,2.1857,2.1854,2.1885,2.1884,2.1895,2.1894,2.1894,2.1893,0,2.0901,2.0963,2.1052,2.1146,2.1171,2.122,2.13,2.1349,2.1398,2.1471,2.1492,2.1569,2.1645,2.1706,2.1805,2.1835,2.1914,2.1927,2.1889,2.1895,2.1922,2.1919,2.1999,2.2013,2.1973,2.1973,2.1973,0,2.093,2.098,2.1079,2.1122,2.1168,2.1235,2.1283,2.1344,2.1392,2.1482,2.152,2.1598,2.1665,2.1783,2.1847,2.1923,2.1938,2.1961,2.195,2.1934,2.1939,2.1936,2.1941,2.1962,2.1962,2.1963,2.1963,0,2.0977,2.1004,2.1073,2.1151,2.1207,2.1272,2.1337,2.1369,2.1442,2.1493,2.1571,2.1623,2.1723,2.1801,2.1883,2.193,2.1958,2.1965,2.1976,2.1963,2.1939,2.1953,2.1893,2.1964,2.1964,2.1963,2.1963,2.1963,2.1001,2.1047,2.1124,2.1197,2.1253,2.1312,2.1363,2.1417,2.1483,2.1571,2.1602,2.1681,2.1755,2.1868,2.1915,2.1977,2.198,2.1996,2.2,2.2004,2.2002,2.1928,2.1992,2.1992,2.1992,2.1992,2.1992,0,2.105,2.1101,2.1168,2.1259,2.1316,2.1337,2.141,2.1457,2.1527,2.1593,2.1657,2.1745,2.182,2.1889,2.1967,2.2004,2.2019,2.2022,2.2021,2.2031,2.1995,2.1978,2.2009,2.2009,2.2009,2.2009,2.2009,2.2009,2.1083,2.1162,2.1198,2.1305,2.1355,2.1434,2.1474,2.1528,2.1581,2.1679,2.1741,2.1785,2.1852,2.1935,2.2004,2.2022,2.2049,2.2049,2.2071,2.2036,2.2034,2.2031,2.2016,2.2054,2.2054,2.2102,2.2102,2.2102]}]]